When you browse on this site, cookies collect data to enhance your experience and personalize the content and advertising you see.
Visit our Privacy Policy to learn more. By continuing to use the site, you agree to this use of cookies and data.
  • en France
  • Liste des pays
  • À 7 jours
  • Température de l'eau
  • Carte satellitaire
  • Carte météo
  • Widgets météo
  • user-avatar
    Se connecter

    Météo par heure à Giumri

    Ce jour, 22 Février, Vendredi

    Heure Température Précipitation Vent Pression Humidité
    00:00 -7°C° 0 mm 1 m/s 632 mmHg 76%
    01:00 -7°C° 0 mm 1 m/s 631 mmHg 76%
    02:00 -8°C° 0 mm 1 m/s 631 mmHg 77%
    03:00 -8°C° 0 mm 1 m/s 631 mmHg 77%
    04:00 -8°C° 0 mm 1 m/s 631 mmHg 77%
    05:00 -8°C° 0 mm 1 m/s 631 mmHg 78%
    06:00 -8°C° 0 mm 1 m/s 631 mmHg 78%
    07:00 -7°C° 0 mm 1 m/s 631 mmHg 77%
    08:00 -7°C° 0 mm 1 m/s 631 mmHg 77%
    09:00 -6°C° 0 mm 1 m/s 631 mmHg 76%
    10:00 -3°C° 0 mm 1 m/s 631 mmHg 74%
    11:00 -2°C° 0 mm 1 m/s 631 mmHg 72%
    12:00 -1°C° 0 mm 1 m/s 631 mmHg 70%
    13:00 -1°C° 0 mm 1 m/s 631 mmHg 71%
    14:00 0°C° 0 mm 1 m/s 631 mmHg 72%
    15:00 0°C° 0 mm 1 m/s 631 mmHg 73%
    16:00 -2°C° 0 mm 1 m/s 630 mmHg 74%
    17:00 -3°C° 0 mm 1 m/s 630 mmHg 76%
    18:00 -4°C° 0 mm 1 m/s 630 mmHg 78%
    19:00 -6°C° 0 mm 1 m/s 630 mmHg 77%
    20:00 -6°C° 0 mm 1 m/s 631 mmHg 77%
    21:00 -7°C° 0 mm 1 m/s 631 mmHg 76%
    22:00 -7°C° 0 mm 1 m/s 631 mmHg 77%
    23:00 -7°C° 0 mm 1 m/s 631 mmHg 77%

    Demain, 23 Février, Samedi

    Heure Température Précipitation Vent Pression Humidité
    00:00 -7°C° 0 mm 1 m/s 632 mmHg 77%
    01:00 -7°C° 0 mm 1 m/s 632 mmHg 77%
    02:00 -8°C° 0 mm 1 m/s 632 mmHg 78%
    03:00 -8°C° 0 mm 1 m/s 632 mmHg 78%
    04:00 -8°C° 0 mm 1 m/s 632 mmHg 78%
    05:00 -8°C° 0 mm 1 m/s 632 mmHg 79%
    06:00 -8°C° 0 mm 1 m/s 632 mmHg 79%
    07:00 -7°C° 0 mm 1 m/s 632 mmHg 78%
    08:00 -6°C° 0 mm 1 m/s 632 mmHg 77%
    09:00 -4°C° 0 mm 1 m/s 633 mmHg 76%
    10:00 -3°C° 0 mm 1 m/s 633 mmHg 74%
    11:00 -1°C° 0 mm 1 m/s 633 mmHg 72%
    12:00 0°C° 0 mm 1 m/s 633 mmHg 69%
    13:00 0°C° 0 mm 1 m/s 633 mmHg 70%
    14:00 +1°C° 0 mm 1 m/s 633 mmHg 71%
    15:00 +1°C° 0 mm 1 m/s 632 mmHg 72%
    16:00 0°C° 0 mm 1 m/s 632 mmHg 73%
    17:00 -2°C° 0 mm 1 m/s 632 mmHg 74%
    18:00 -3°C° 0 mm 1 m/s 632 mmHg 76%
    19:00 -3°C° 0 mm 1 m/s 632 mmHg 76%
    20:00 -4°C° 0 mm 1 m/s 633 mmHg 76%
    21:00 -4°C° 0 mm 1 m/s 633 mmHg 76%
    22:00 -4°C° 0 mm 1 m/s 633 mmHg 77%
    23:00 -4°C° 0 mm 1 m/s 633 mmHg 78%

    Après-demain, 24 Février, Dimanche

    Heure Température Précipitation Vent Pression Humidité
    00:00 -6°C° 0 mm 1 m/s 634 mmHg 78%
    01:00 -6°C° 0 mm 1 m/s 634 mmHg 79%
    02:00 -6°C° 0 mm 1 m/s 634 mmHg 79%
    03:00 -6°C° 0 mm 1 m/s 633 mmHg 79%
    04:00 -6°C° 0 mm 1 m/s 633 mmHg 78%
    05:00 -6°C° 0 mm 1 m/s 633 mmHg 77%
    06:00 -6°C° 0 mm 1 m/s 633 mmHg 76%
    07:00 -4°C° 0 mm 1 m/s 634 mmHg 74%
    08:00 -3°C° 0 mm 1 m/s 634 mmHg 73%
    09:00 -2°C° 0 mm 1 m/s 635 mmHg 71%
    10:00 -1°C° 0 mm 1 m/s 635 mmHg 69%
    11:00 +1°C° 0 mm 1 m/s 635 mmHg 67%
    12:00 +2°C° 0 mm 1 m/s 635 mmHg 65%
    13:00 +2°C° 0 mm 1 m/s 635 mmHg 66%
    14:00 +2°C° 0 mm 1 m/s 634 mmHg 67%
    15:00 +3°C° 0 mm 1 m/s 634 mmHg 68%
    16:00 +1°C° 0 mm 1 m/s 634 mmHg 70%
    17:00 0°C° 0 mm 1 m/s 634 mmHg 72%
    18:00 -2°C° 0 mm 1 m/s 633 mmHg 74%
    19:00 -2°C° 0 mm 1 m/s 634 mmHg 74%
    20:00 -3°C° 0 mm 1 m/s 634 mmHg 73%
    21:00 -3°C° 0 mm 1 m/s 634 mmHg 73%
    22:00 -3°C° 0 mm 1 m/s 635 mmHg 74%
    23:00 -4°C° 0 mm 1 m/s 635 mmHg 74%

    25 Février, Lundi

    Heure Température Précipitation Vent Pression Humidité
    00:00 -4°C° 0 mm 1 m/s 635 mmHg 75%
    01:00 -4°C° 0 mm 1 m/s 635 mmHg 76%
    02:00 -4°C° 0 mm 1 m/s 634 mmHg 76%
    03:00 -6°C° 0 mm 1 m/s 634 mmHg 77%
    04:00 -6°C° 0 mm 1 m/s 634 mmHg 77%
    05:00 -6°C° 0 mm 1 m/s 634 mmHg 77%
    06:00 -6°C° 0 mm 1 m/s 634 mmHg 77%
    07:00 -4°C° 0 mm 1 m/s 635 mmHg 75%
    08:00 -3°C° 0 mm 1 m/s 635 mmHg 74%
    09:00 -2°C° 0 mm 1 m/s 635 mmHg 73%
    10:00 -1°C° 0 mm 1 m/s 635 mmHg 71%
    11:00 0°C° 0 mm 1 m/s 635 mmHg 69%
    12:00 +1°C° 0 mm 1 m/s 635 mmHg 67%
    13:00 +1°C° 0 mm 1 m/s 635 mmHg 67%
    14:00 +1°C° 0 mm 1 m/s 634 mmHg 67%
    15:00 +2°C° 0 mm 1 m/s 634 mmHg 67%
    16:00 0°C° 0 mm 1 m/s 634 mmHg 69%
    17:00 -1°C° 0 mm 1 m/s 633 mmHg 71%
    18:00 -3°C° 0 mm 1 m/s 633 mmHg 72%
    19:00 -3°C° 0 mm 1 m/s 633 mmHg 72%
    20:00 -4°C° 0 mm 1 m/s 633 mmHg 72%
    21:00 -6°C° 0 mm 1 m/s 633 mmHg 72%
    22:00 -6°C° 0 mm 1 m/s 633 mmHg 72%
    23:00 -6°C° 0 mm 1 m/s 633 mmHg 73%

    26 Février, Mardi

    Heure Température Précipitation Vent Pression Humidité
    00:00 -7°C° 0 mm 1 m/s 633 mmHg 73%
    01:00 -7°C° 0 mm 1 m/s 632 mmHg 73%
    02:00 -7°C° 0 mm 1 m/s 632 mmHg 72%
    03:00 -8°C° 0 mm 1 m/s 632 mmHg 72%
    04:00 -8°C° 0 mm 1 m/s 631 mmHg 72%
    05:00 -8°C° 0 mm 1 m/s 631 mmHg 72%
    06:00 -8°C° 0 mm 1 m/s 631 mmHg 72%
    07:00 -7°C° 0 mm 1 m/s 631 mmHg 73%
    08:00 -6°C° 0 mm 1 m/s 631 mmHg 73%
    09:00 -4°C° 0 mm 1 m/s 631 mmHg 74%
    10:00 -3°C° 0 mm 1 m/s 630 mmHg 71%
    11:00 -3°C° 0 mm 2 m/s 629 mmHg 69%
    12:00 -2°C° 0 mm 2 m/s 629 mmHg 66%
    13:00 -2°C° 0 mm 2 m/s 628 mmHg 65%
    14:00 -1°C° 0 mm 2 m/s 627 mmHg 65%
    15:00 +1°C° 0 mm 1 m/s 626 mmHg 65%
    16:00 0°C° 0 mm 1 m/s 625 mmHg 67%
    17:00 -2°C° 0 mm 1 m/s 624 mmHg 69%
    18:00 -3°C° 0 mm 1 m/s 624 mmHg 70%
    19:00 -3°C° 0 mm 1 m/s 623 mmHg 70%
    20:00 -4°C° 0 mm 1 m/s 623 mmHg 69%
    21:00 -4°C° 0 mm 1 m/s 622 mmHg 68%
    22:00 -3°C° 0 mm 1 m/s 622 mmHg 70%
    23:00 -3°C° 0 mm 1 m/s 621 mmHg 72%

    27 Février, Mercredi

    Heure Température Précipitation Vent Pression Humidité
    00:00 -3°C° 0 mm 1 m/s 621 mmHg 74%
    01:00 -3°C° 0.2 mm 1 m/s 620 mmHg 78%
    02:00 -2°C° 0.2 mm 1 m/s 620 mmHg 82%
    03:00 -2°C° 0.2 mm 1 m/s 619 mmHg 86%
    04:00 -2°C° 0.2 mm 1 m/s 619 mmHg 86%
    05:00 -2°C° 0.2 mm 1 m/s 619 mmHg 86%
    06:00 -4°C° 0.2 mm 2 m/s 619 mmHg 86%
    07:00 -4°C° 0.1 mm 2 m/s 619 mmHg 83%
    08:00 -3°C° 0.1 mm 2 m/s 619 mmHg 79%
    09:00 -3°C° 0.1 mm 2 m/s 619 mmHg 76%
    10:00 -2°C° 0 mm 2 m/s 619 mmHg 72%
    11:00 -2°C° 0 mm 3 m/s 619 mmHg 68%
    12:00 -1°C° 0 mm 3 m/s 619 mmHg 64%
    13:00 -1°C° 0 mm 3 m/s 619 mmHg 64%
    14:00 -1°C° 0 mm 2 m/s 619 mmHg 64%
    15:00 -1°C° 0 mm 2 m/s 619 mmHg 65%
    16:00 -2°C° 0 mm 2 m/s 619 mmHg 67%
    17:00 -3°C° 0 mm 2 m/s 619 mmHg 69%
    18:00 -2°C° 0 mm 1 m/s 619 mmHg 71%
    19:00 -3°C° 0.1 mm 1 m/s 619 mmHg 73%
    20:00 -3°C° 0.1 mm 1 m/s 620 mmHg 75%
    21:00 -4°C° 0.1 mm 1 m/s 620 mmHg 77%
    22:00 -4°C° 0.1 mm 1 m/s 620 mmHg 77%
    23:00 -4°C° 0.1 mm 1 m/s 620 mmHg 78%
    Voir plus